This demonstration page uses our WeatherBlox Daily Observations layout. Learn more.

Hourly Observations for March 17, 2018

Temp ( °F °C ) Dew Point ( °F °C ) Humidity (%) Winds ( mph kmh ) Pressure ( in mb ) Visibility ( mi km ) Precip ( " mm )
12:15 am 00:15 Cloudy 33 0.6 32 0 96 96 NNW 10 17 29.97 1015 10 16.0934 0 0
12:35 am 00:35 Cloudy 33 0.5 31 -0.6 92 92 NNW 12 19 30 1016 10 16.0934 0 0
12:55 am 00:55 Cloudy 33 0.4 31 -0.7 92 92 NNW 10 17 29.97 1015 10 16.0934 0 0
1:15 am 01:15 Cloudy 33 0.5 31 -0.5 93 93 NW 9 15 29.97 1015 10 16.0934 0 0
1:35 am 01:35 Cloudy 32 0.2 31 -0.7 94 94 NNW 12 19 29.97 1015 10 16.0934 0 0
1:55 am 01:55 Cloudy 32 0.1 31 -0.7 94 94 NNW 8 13 29.97 1015 10 16.0934 0 0
2:15 am 02:15 Cloudy 32 0.2 30 -0.9 92 92 NNW 9 15 30 1016 10 16.0934 0 0
2:35 am 02:35 Cloudy 32 0.1 30 -0.9 93 93 NNW 12 19 30 1016 10 16.0934 0 0
2:55 am 02:55 Cloudy 32 0 29 -1.5 90 90 NNW 10 17 30 1016 10 16.0934 0 0
3:15 am 03:15 Cloudy 32 0 29 -1.6 89 89 NNW 13 20 30 1016 10 16.0934 0 0
3:35 am 03:35 Cloudy 32 0 29 -1.6 89 89 N 9 15 30 1016 10 16.0934 0 0
3:55 am 03:55 Cloudy 32 0 29 -1.6 89 89 NNW 9 15 30 1016 10 16.0934 0 0
4:15 am 04:15 Cloudy 32 0 29 -1.5 90 90 NNW 9 15 30 1016 10 16.0934 0 0
4:35 am 04:35 Cloudy 32 0 29 -1.5 90 90 NNW 14 22 30 1016 10 16.0934 0 0
4:55 am 04:55 Cloudy 32 -0.1 29 -1.7 89 89 NNW 12 19 30.03 1017 10 16.0934 0 0
5:15 am 05:15 Cloudy 31 -0.3 28 -2.3 87 87 NNW 14 22 30.03 1017 10 16.0934 0 0
5:35 am 05:35 Cloudy 31 -0.5 28 -2.3 88 88 NNW 12 19 30.03 1017 10 16.0934 0 0
5:55 am 05:55 Cloudy 31 -0.4 28 -2 89 89 NW 9 15 30.03 1017 10 16.0934 0 0
6:15 am 06:15 Cloudy 31 -0.5 28 -2 90 90 NNW 10 17 30.03 1017 10 16.0934 0 0
6:35 am 06:35 Cloudy 31 -0.5 28 -2 90 90 NNW 10 17 30.06 1018 10 16.0934 0 0
6:55 am 06:55 Cloudy 31 -0.6 28 -2.2 89 89 NNW 9 15 30.06 1018 10 16.0934 0 0
7:15 am 07:15 Cloudy 31 -0.6 28 -2.2 89 89 NNW 14 22 30.06 1018 10 16.0934 0 0
7:35 am 07:35 Cloudy 31 -0.6 28 -2.2 89 89 NNW 10 17 30.06 1018 10 16.0934 0 0
7:55 am 07:55 Cloudy 31 -0.7 28 -2.2 90 90 NNW 10 17 30.09 1019 10 16.0934 0 0
8:15 am 08:15 Cloudy 31 -0.6 28 -2.2 89 89 N 14 22 30.06 1018 10 16.0934 0 0
8:35 am 08:35 Cloudy 31 -0.5 28 -2.1 89 89 N 13 20 30.12 1020 10 16.0934 0 0
8:55 am 08:55 Cloudy 31 -0.5 28 -2.1 89 89 N 12 19 30.12 1020 10 16.0934 0 0
9:15 am 09:15 Cloudy 31 -0.5 28 -2 90 90 N 14 22 30.12 1020 10 16.0934 0 0
9:35 am 09:35 Cloudy 32 -0.2 29 -1.9 88 88 N 13 20 30.09 1019 10 16.0934 0 0
9:55 am 09:55 Cloudy 32 -0.1 29 -1.7 89 89 N 15 24 30.09 1019 10 16.0934 0 0
10:15 am 10:15 Cloudy 32 -0.1 28 -2 87 87 N 8 13 30.09 1019 10 16.0934 0 0
10:35 am 10:35 Cloudy 32 -0.1 29 -1.9 88 88 N 10 17 30.12 1020 10 16.0934 0 0
10:55 am 10:55 Cloudy 32 0 28 -2 87 87 N 8 13 30.12 1020 10 16.0934 0 0
11:15 am 11:15 Cloudy 32 0 29 -1.9 87 87 N 5 7 30.12 1020 10 16.0934 0 0
11:35 am 11:35 Cloudy 32 0.1 29 -1.9 87 87 N 3 6 30.12 1020 10 16.0934 0 0
11:55 am 11:55 Cloudy 32 0.2 29 -1.6 88 88 NNW 5 7 30.12 1020 10 16.0934 0 0
12:15 pm 12:15 Cloudy 33 0.3 29 -1.6 87 87 NNW 3 6 30.12 1020 10 16.0934 0 0
12:30 pm 12:30 Cloudy 33 0.5 29 -1.7 85 85 NNW 3 6 30.12 1020 10 16.0934 0 0
12:55 pm 12:55 Cloudy 33 0.7 30 -1.2 87 87 NNW 3 6 30.12 1020 10 16.0934 0 0
1:15 pm 13:15 Cloudy 34 0.9 30 -1.2 86 86 NNW 3 6 30.12 1020 10 16.0934 0 0
1:35 pm 13:35 Cloudy 34 1 30 -1.2 85 85 Calm 30.12 1020 10 16.0934 0 0
1:55 pm 13:55 Cloudy 35 1.5 31 -0.8 85 85 WNW 3 6 30.09 1019 10 16.0934 0 0
2:15 pm 14:15 Mostly Cloudy 35 1.9 31 -0.4 85 85 ENE 3 6 30.09 1019 10 16.0934 0 0
2:35 pm 14:35 Partly Cloudy 37 2.5 32 0 84 84 Calm 30.09 1019 10 16.0934 0 0
2:55 pm 14:55 Partly Cloudy 37 3 32 0.1 81 81 NE 5 7 30.06 1018 10 16.0934 0 0
3:15 pm 15:15 Partly Cloudy 39 3.8 33 0.7 80 80 Calm 30.06 1018 10 16.0934 0 0
3:35 pm 15:35 Partly Cloudy 40 4.3 33 0.6 77 77 Calm 30.03 1017 10 16.0934 0 0
3:55 pm 15:55 Sunny 40 4.2 33 0.4 77 77 Calm 30.03 1017 10 16.0934 0 0
4:15 pm 16:15 Partly Cloudy 41 5 34 0.9 75 75 Calm 30.03 1017 10 16.0934 0 0
4:35 pm 16:35 Sunny 42 5.7 35 1.5 75 75 E 5 7 30 1016 10 16.0934 0 0
4:55 pm 16:55 Sunny 42 5.7 34 1.1 73 73 Calm 30 1016 10 16.0934 0 0
5:15 pm 17:15 Sunny 43 6 34 1.2 72 72 Calm 30 1016 10 16.0934 0 0
5:35 pm 17:35 Sunny 43 6.2 34 1.2 71 71 ENE 5 7 29.97 1015 10 16.0934 0 0
5:55 pm 17:55 Sunny 44 6.5 34 1.1 69 69 Calm 29.97 1015 10 16.0934 0 0
6:15 pm 18:15 Sunny 44 6.6 34 1.3 69 69 ENE 6 9 29.97 1015 10 16.0934 0 0
6:35 pm 18:35 Sunny 44 6.5 34 1.1 69 69 E 5 7 29.97 1015 10 16.0934 0 0
6:55 pm 18:55 Sunny 43 6.3 34 1.1 70 70 ESE 7 11 29.97 1015 10 16.0934 0 0
7:15 pm 19:15 Sunny 42 5.5 34 1.1 74 74 ESE 8 13 29.97 1015 10 16.0934 0 0
7:35 pm 19:35 Sunny 40 4.5 34 1.1 79 79 E 7 11 30 1016 10 16.0934 0 0
7:55 pm 19:55 Clear 38 3.2 34 1 86 86 E 9 15 30 1016 10 16.0934 0 0
8:15 pm 20:15 Clear 36 2.3 33 0.6 89 89 E 9 15 30 1016 10 16.0934 0 0
8:35 pm 20:35 Clear 35 1.5 32 0.2 91 91 E 10 17 30.03 1017 10 16.0934 0 0
8:55 pm 20:55 Clear 33 0.6 32 -0.1 95 95 E 8 13 30.06 1018 10 16.0934 0 0
9:15 pm 21:15 Clear 32 0 31 -0.6 96 96 ESE 9 15 30.06 1018 10 16.0934 0 0
9:35 pm 21:35 Clear 31 -0.5 31 -0.8 98 98 ESE 9 15 30.06 1018 10 16.0934 0 0
9:55 pm 21:55 Clear 31 -0.3 31 -0.5 99 99 ESE 9 15 30.06 1018 10 16.0934 0 0
10:15 pm 22:15 Clear 31 -0.5 31 -0.6 99 99 ESE 12 19 30.06 1018 10 16.0934 0 0
10:35 pm 22:35 Clear 31 -0.6 31 -0.8 99 99 E 10 17 30.06 1018 10 16.0934 0 0
10:55 pm 22:55 Clear 31 -0.8 30 -1 99 99 ESE 9 15 30.09 1019 10 16.0934 0 0
11:15 pm 23:15 Clear 31 -0.8 30 -1 99 99 ESE 9 15 30.09 1019 10 16.0934 0 0
11:35 pm 23:35 Clear 31 -0.8 30 -1 99 99 ESE 9 15 30.09 1019 10 16.0934 0 0
11:55 pm 23:55 Clear 31 -0.8 30 -0.9 99 99 ESE 8 13 30.09 1019 7 11.26538 0 0

Powered by AerisWeather